TimePDT,TemperatureF,Dew PointF,Humidity,Sea Level PressureIn,VisibilityMPH,Wind Direction,Wind SpeedMPH,Gust SpeedMPH,PrecipitationIn,Events,Conditions,WindDirDegrees,DateUTC
12:22 AM,53.6,50.0,88,29.92,3.0,SSW,9.2,-,0.06,Rain,Rain,200,2013-10-07 07:22:00
12:53 AM,54.0,50.0,86,29.94,4.0,South,9.2,-,0.12,Rain,Rain,190,2013-10-07 07:53:00
1:31 AM,55.4,51.8,88,29.93,10.0,SSW,15.0,23.0,0.02,,Overcast,210,2013-10-07 08:31:00
1:41 AM,53.6,51.8,94,29.94,7.0,SSW,15.0,-,0.02,Rain,Light Rain,200,2013-10-07 08:41:00
1:53 AM,54.0,51.1,90,29.95,7.0,South,12.7,-,0.02,,Overcast,190,2013-10-07 08:53:00
2:19 AM,53.6,51.8,94,29.93,10.0,South,9.2,18.4,N/A,,Overcast,180,2013-10-07 09:19:00
2:53 AM,55.0,51.1,86,29.95,10.0,South,12.7,-,N/A,,Overcast,180,2013-10-07 09:53:00
3:29 AM,53.6,51.8,94,29.93,10.0,South,11.5,-,0.01,,Overcast,170,2013-10-07 10:29:00
3:53 AM,54.0,50.0,86,29.95,10.0,South,11.5,-,0.01,,Mostly Cloudy,180,2013-10-07 10:53:00
4:53 AM,55.0,50.0,83,29.95,10.0,South,9.2,-,N/A,,Overcast,180,2013-10-07 11:53:00
5:53 AM,54.0,48.9,83,29.95,10.0,South,12.7,-,0.00,,Scattered Clouds,180,2013-10-07 12:53:00
6:53 AM,54.0,48.9,83,29.94,10.0,South,12.7,-,N/A,,Mostly Cloudy,180,2013-10-07 13:53:00
7:53 AM,54.0,48.0,80,29.95,10.0,South,13.8,-,N/A,,Mostly Cloudy,190,2013-10-07 14:53:00
8:53 AM,55.0,48.0,77,29.96,10.0,South,13.8,-,N/A,,Mostly Cloudy,190,2013-10-07 15:53:00
9:02 AM,55.4,48.2,77,29.95,10.0,SSW,12.7,-,N/A,,Overcast,200,2013-10-07 16:02:00
9:53 AM,55.0,48.9,80,29.97,10.0,SSW,16.1,20.7,N/A,,Overcast,200,2013-10-07 16:53:00
10:53 AM,55.0,48.0,77,29.99,10.0,SW,18.4,29.9,0.00,,Mostly Cloudy,220,2013-10-07 17:53:00
11:53 AM,55.9,48.0,75,30.01,10.0,SSW,13.8,23.0,N/A,,Mostly Cloudy,210,2013-10-07 18:53:00
12:53 PM,59.0,46.9,64,30.01,10.0,SSW,19.6,25.3,N/A,,Mostly Cloudy,210,2013-10-07 19:53:00
1:53 PM,57.0,44.1,62,30.01,10.0,SSW,17.3,25.3,N/A,,Mostly Cloudy,200,2013-10-07 20:53:00
2:53 PM,60.1,46.0,60,30.01,10.0,SW,19.6,26.5,N/A,,Scattered Clouds,220,2013-10-07 21:53:00
3:53 PM,59.0,44.1,58,30.02,10.0,SSW,16.1,28.8,N/A,,Mostly Cloudy,210,2013-10-07 22:53:00
4:53 PM,57.9,45.0,62,30.03,10.0,SSW,15.0,21.9,N/A,,Mostly Cloudy,210,2013-10-07 23:53:00
5:53 PM,55.9,44.1,64,30.04,10.0,SSW,13.8,25.3,N/A,,Mostly Cloudy,210,2013-10-08 00:53:00
6:53 PM,55.0,45.0,69,30.04,10.0,SSW,13.8,23.0,N/A,,Mostly Cloudy,200,2013-10-08 01:53:00
7:53 PM,55.0,45.0,69,30.04,10.0,South,13.8,-,N/A,,Mostly Cloudy,190,2013-10-08 02:53:00
8:53 PM,54.0,46.9,77,30.04,10.0,South,8.1,16.1,0.00,,Overcast,180,2013-10-08 03:53:00
9:53 PM,54.0,46.9,77,30.05,10.0,SSW,12.7,-,N/A,,Overcast,210,2013-10-08 04:53:00
10:53 PM,54.0,46.9,77,30.05,10.0,SSW,16.1,-,N/A,,Overcast,210,2013-10-08 05:53:00
11:53 PM,54.0,46.9,77,30.04,10.0,SSW,13.8,23.0,N/A,,Overcast,210,2013-10-08 06:53:00